Regional Weather Roundup
Issued by NWS

Home | Current Version | Previous Version | Graphics & Text | Print | Product List | Glossary On
Versions: 1 2 3 4 5 6 7 8 9 10 11 12 13 14 15 16 17 18 19 20 21 22 23 24 25 26 27 28 29 30 31 32 33 34 35 36 37 38 39 40 41 42 43 44 45 46 47 48 49 50
000
ASUS43 KOAX 031810
RWRNE

WEATHER ROUNDUP FOR NEBRASKA
NATIONAL WEATHER SERVICE OMAHA NE
100 PM CDT THU SEP 03 2015

NOTES: SATELLITE DATA IS BEING USED TO AUGMENT CLOUD COVER ABOVE
       12000 FEET.
       "FAIR" INDICATES FEW OR NO CLOUDS BELOW 12,000 FEET WITH NO
       SIGNIFICANT WEATHER AND/OR OBSTRUCTIONS TO VISIBILITY.

  * THESE STATIONS DO NOT REPORT WEATHER SUCH AS RAIN...SNOW OR FOG.

NEZ001>004-019>022-054>056-031900-
NEBRASKA PANHANDLE

CITY           SKY/WX    TMP DP  RH WIND       PRES   REMARKS
SCOTTSBLUFF    MOSUNNY   88  48  25 W7        29.90F
6HR MIN TEMP:  57; 6HR MAX TEMP:  89;

ALLIANCE       PTSUNNY   89  46  22 CALM      29.89F
6HR MIN TEMP:  54; 6HR MAX TEMP:  91;

CHADRON        MOSUNNY   94  48  20 E3        29.82F HX  90
6HR MIN TEMP:  61; 6HR MAX TEMP:  95;

KIMBALL        LGT RAIN  79  47  32 CALM      29.98F
SIDNEY         PTSUNNY   89  44  20 N3        29.94F
6HR MIN TEMP:  53; 6HR MAX TEMP:  91;

$$

NEZ057>060-069>072-079>082-031900-
SOUTHWEST NEBRASKA

CITY           SKY/WX    TMP DP  RH WIND       PRES   REMARKS
NORTH PLATTE   PTSUNNY   86  64  47 SE7       29.82F
6HR MIN TEMP:  59; 6HR MAX TEMP:  86;

IMPERIAL       MOSUNNY   91  59  33 E5        29.85F HX  90
6HR MIN TEMP:  58; 6HR MAX TEMP:  91;

LEXINGTON      PTSUNNY   84  64  50 SE9       29.83S
MCCOOK         PTSUNNY   91  59  33 SE9       29.81F HX  90
6HR MIN TEMP:  63; 6HR MAX TEMP:  92;

OGALLALA       MOSUNNY   92  59  32 SE5       29.85F HX  91
$$

NEZ005>010-023>029-035>040-094-031900-
NORTH CENTRAL NEBRASKA

CITY           SKY/WX    TMP DP  RH WIND       PRES   REMARKS
VALENTINE      SUNNY     98  44  15 SE13      29.81F HX  94
6HR MIN TEMP:  58; 6HR MAX TEMP:  98;

AINSWORTH      SUNNY     96  54  24 E10       29.82F HX  93
BROKEN BOW     MOSUNNY   88  64  44 SE8       29.82F
6HR MIN TEMP:  60; 6HR MAX TEMP:  88;

O`NEILL        SUNNY     89  67  49 E10       29.81F HX  91
ORD            SUNNY     90  62  39 SE12      29.80F HX  90
6HR MIN TEMP:  60; 6HR MAX TEMP:  90;

THEDFORD       MOSUNNY   93  60  32 SE8       29.84F HX  92
$$

NEZ041-046>049-061>064-073>077-083>087-031900-
SOUTH CENTRAL NEBRASKA

CITY           SKY/WX    TMP DP  RH WIND       PRES   REMARKS
GRAND ISLAND   SUNNY     89  63  41 SE12      29.83F HX  90
6HR MIN TEMP:  70; 6HR MAX TEMP:  90;

AURORA         SUNNY     89  65  45 SE9       29.83F HX  90
HASTINGS       MOSUNNY   90  62  39 S12G18    29.83F HX  90
6HR MIN TEMP:  70; 6HR MAX TEMP:  90;

HEBRON         SUNNY     90  61  37 S14G20    29.84S
HOLDREGE       PTSUNNY   87  59  39 SE12      29.83F
KEARNEY *      MOSUNNY   88  63  42 S13       29.82F
YORK           SUNNY     88  66  48 S13       29.84F HX  90
$$

NEZ011>018-030>034-042>045-031900-
NORTHEAST NEBRASKA

CITY           SKY/WX    TMP DP  RH WIND       PRES   REMARKS
NORFOLK        SUNNY     85  69  58 S13       29.82F
6HR MIN TEMP:  64; 6HR MAX TEMP:  85;

ALBION         SUNNY     84  67  57 SE9       29.83S
BLAIR          SUNNY     84  68  59 SE9       29.86F
COLUMBUS *     SUNNY     86  66  51 S8        29.82F
FREMONT        SUNNY     86  69  55 SE13      29.85F HX  90
TEKAMAH        SUNNY     86  71  60 S13       29.84F HX  91
6HR MIN TEMP:  70; 6HR MAX TEMP:  86;

WAYNE          SUNNY     83  72  67 S10       29.84S
$$

NEZ050>053-065>068-078-088>093-031900-
SOUTHEAST NEBRASKA

CITY           SKY/WX    TMP DP  RH WIND       PRES   REMARKS
LINCOLN        SUNNY     90  68  48 S12       29.84F HX  94
6HR MIN TEMP:  75; 6HR MAX TEMP:  90;

OMAHA EPPLEY   MOSUNNY   88  69  53 S14       29.85F HX  92
6HR MIN TEMP:  74; 6HR MAX TEMP:  88;

BEATRICE       SUNNY     89  66  46 S17       29.85F HX  92
FALLS CITY     MOSUNNY   91  69  48 S12       29.88F HX  96
6HR MIN TEMP:  73; 6HR MAX TEMP:  91; 6HR PCP: TRACE;

NEBRASKA CITY  SUNNY     89  60  38 S16       29.87F
PLATTSMOUTH    SUNNY     86  68  54 SE13      29.86F
$$

NEZ044-045-051>053-067-031900-
OMAHA AREA

CITY           SKY/WX    TMP DP  RH WIND       PRES   REMARKS
OMAHA EPPLEY   MOSUNNY   88  69  53 S14       29.85F HX  92
6HR MIN TEMP:  74; 6HR MAX TEMP:  88;

BLAIR          SUNNY     84  68  59 SE9       29.86F
FREMONT        SUNNY     86  69  55 SE13      29.85F HX  90
MILLARD        SUNNY     87  72  61 SE13      29.85F HX  93
OFFUTT AFB     SUNNY     88  69  54 SE13      29.85F HX  92
PLATTSMOUTH    SUNNY     86  68  54 SE13      29.86F
WAHOO          FAIR      87  69  55 S13       29.85S HX  91
$$




USA.gov is the U.S. government's official web portal to all federal, state and local government web resources and services.